User: anonymous   Login
Location: Huntington Beach
(33.6600°N, 117.9980°W)
Time: 12:52:38
(UTC-07:00)
Language:

Hubble Space Telescope - Orbit

View from above orbital plane
View from above orbital plane
View from above satellite
View from above satellite

Ground track
Ground track

The orbit data is extracted from the following two-line orbital elements,

1 20580U 90037B   17232.65080544 +.00000584 +00000-0 +25019-4 0  9999
2 20580 028.4698 301.5451 0002833 142.0620 349.1042 15.08818966299942
Epoch (UTC): 20 August 2017 15:37:09
Eccentricity: 0.0002833
inclination: 28.4698°
perigee height: 538 km
apogee height: 542 km
right ascension of ascending node: 301.5451°
argument of perigee: 142.0620°
revolutions per day: 15.08818966
mean anomaly at epoch: 349.1042°
orbit number at epoch: 29994

The dashed part of the orbit path shows where the satellite is in the earth's shadow,  

DLR